Location: Braunsdorf
(50.7357°N, 11.9136°E)
Time: 18:30:34
(UTC+00:00)

BREEZE M DEB (TANK) - Pass Details

Date: 17 February 2020
Orbit: 315 x 13667 km, 49.6° (Epoch: 27 March)

Event Time Altitude Azimuth Distance (km) Brightness Sun altitude
Exits shadow 04:05:15 76° 167° (SSE) 534 2.6 -22.2°
Drops below altitude 10° 04:10:57 10° 93° (E) 3,049 7.7 -21.3°
Sets 04:15:53 0° 93° (E) 5,329 9.3 -20.5°
